[[{"header":{"parameterUnit":"m.s-1","parameterCategory":2,"la1":30.2991,"la2":30.254,"lo1":-89.0895,"lo2":-89.0444,"dy":0.0017,"dx":0.0017,"nx":28,"ny":28,"refTime":"2023-10-11T09:00:00:Z","depth":"0","parameterNumber":2,"parameterNumberName":"U-component_of_CURRENTS"},"data":[0,0,0,0,0,0,0,0,0,0,0,0,0,0,0,0,0,0,0,0,0,0,0,0,0,0,0,0,0,0,0,0,0,0,0,0,0,0,0,0,0,0,0,0,0,0,0,0,0,0,0,0,0,0,0,0,0,0,-0.2365,-0.2365,0,-0.238,-0.238,-0.2381,-0.2406,-0.2406,-0.2406,-0.2406,-0.2361,-0.2359,-0.2358,0,0,0,0,0,0,0,0,0,0,0,0,0,-0.2357,-0.2357,-0.2365,-0.2365,-0.2365,-0.238,-0.238,-0.2381,-0.2406,-0.2406,-0.2406,-0.2407,-0.2361,-0.236,-0.2358,0,0,0,0,0,0,0,0,0,0,0,0,0,-0.2368,-0.2357,-0.2365,-0.2377,-0.2377,-0.2379,-0.238,-0.2381,-0.2406,-0.2406,-0.2406,-0.2407,-0.2362,-0.236,-0.2358,-0.2341,0,0,-0.2352,-0.2351,0,0,0,0,0,0,0,0,-0.2368,-0.2369,-0.2375,-0.2376,-0.2377,-0.2388,-0.236,-0.2363,-0.2406,-0.2399,-0.2406,-0.2407,-0.2362,-0.236,-0.2368,-0.2339,-0.2337,-0.2351,-0.235,-0.2349,-0.2349,0,0,0,0,0,0,0,-0.2367,-0.2368,-0.2375,-0.2375,-0.2376,-0.238,-0.2382,-0.2362,-0.2381,-0.24,-0.2401,-0.2396,-0.2362,-0.237,-0.2367,-0.2336,-0.2352,-0.235,-0.2348,-0.2348,-0.2333,-0.2334,0,0,0,0,0,0,-0.2357,-0.2368,-0.2374,-0.2375,-0.2368,-0.2379,-0.2382,-0.2387,-0.2382,-0.2381,-0.2396,-0.2397,-0.2373,-0.2369,-0.2365,-0.2399,-0.2349,-0.2347,-0.2346,-0.2332,-0.2333,-0.2334,0,0,0,0,0,0,-0.2357,-0.2358,-0.2374,-0.2368,-0.237,-0.2379,-0.2385,-0.2387,-0.2399,-0.238,-0.2378,-0.2405,-0.2373,-0.2368,-0.2362,-0.2395,-0.2347,-0.2345,-0.2331,-0.2332,-0.2334,-0.243,0,0,0,0,0,0,-0.2357,-0.2359,-0.236,-0.2368,-0.237,-0.2401,-0.2384,-0.2387,-0.2394,-0.2396,-0.2386,-0.2382,-0.2373,-0.2365,-0.236,-0.2391,-0.2343,-0.233,-0.2332,-0.2333,-0.2426,-0.2435,-0.2442,0,0,0,0,0,-0.2357,-0.2361,-0.236,-0.2361,-0.2372,-0.2402,-0.2405,-0.2413,-0.2394,-0.242,-0.2401,-0.2383,-0.2371,-0.2364,-0.2357,-0.2389,-0.2329,-0.2331,-0.2333,-0.2423,-0.2433,-0.2442,0,0,0,0,0,0,-0.2359,-0.2363,-0.2363,-0.2369,-0.2394,-0.2405,-0.2409,-0.2413,-0.2419,-0.2413,-0.2387,-0.2383,-0.2395,-0.2369,-0.2361,-0.2388,-0.2349,-0.235,-0.2419,-0.2429,-0.2437,-0.2479,-0.2341,0,0,0,0,0,-0.2357,-0.2364,-0.2378,-0.2386,-0.2388,-0.2397,-0.2404,-0.2423,-0.2424,-0.2428,-0.2405,-0.2389,-0.2397,-0.2393,-0.2388,-0.2392,-0.2385,-0.2408,-0.2416,-0.2423,-0.2453,-0.2474,-0.2487,-0.234,-0.234,-0.234,0,0,-0.2356,-0.2362,-0.2363,-0.2387,-0.2392,-0.243,-0.2404,-0.2429,-0.2468,-0.2417,-0.2431,-0.2413,-0.2403,-0.2425,-0.2427,-0.2407,-0.2457,-0.2426,-0.2432,-0.2458,-0.2477,-0.2492,-0.2505,-0.2341,-0.2341,-0.2341,0,0,-0.2393,-0.2363,-0.2401,-0.2426,-0.2452,-0.2449,-0.2458,-0.2469,-0.2479,-0.2497,-0.2477,-0.2479,-0.246,-0.2478,-0.2483,-0.2524,-0.2499,-0.2512,-0.2589,-0.2609,-0.2622,-0.2634,-0.2628,-0.2639,-0.2516,-0.2516,-0.2516,0,-0.2397,-0.2448,-0.2419,-0.2477,-0.2501,-0.246,-0.2527,-0.2526,-0.2538,-0.2556,-0.2515,-0.2524,-0.2499,-0.256,-0.2579,-0.2548,-0.2545,-0.2557,-0.2623,-0.2634,-0.2644,-0.2636,-0.2646,-0.2521,-0.252,-0.252,-0.2519,0,-0.2489,-0.2526,-0.2541,-0.2593,-0.2617,-0.2656,-0.2657,-0.2666,-0.264,-0.2647,-0.2679,-0.2645,-0.2656,-0.2647,-0.2629,-0.2695,-0.2664,-0.2633,-0.2606,-0.2666,-0.2652,-0.2661,-0.2528,-0.2526,-0.2525,-0.2524,0,0,-0.2499,-0.2593,-0.2601,-0.2639,-0.2687,-0.2701,-0.2759,-0.2801,-0.283,-0.2811,-0.2866,-0.2861,-0.282,-0.2824,-0.2789,-0.2807,-0.2857,-0.2759,-0.2757,-0.2767,-0.2892,-0.2747,-0.2742,-0.2841,-0.2844,-0.2846,-0.2848,0,-0.2583,-0.2703,-0.2745,-0.2827,-0.2861,-0.2872,-0.2923,-0.2955,-0.295,-0.2971,-0.295,-0.296,-0.2892,-0.2891,-0.2905,-0.287,-0.2889,-0.2859,-0.2822,-0.2821,-0.2696,-0.2751,-0.2593,-0.2572,-0.2856,-0.2858,-0.2859,0,-0.2652,-0.2722,-0.2843,-0.2922,-0.2942,-0.2985,-0.3039,-0.3089,-0.3125,-0.3134,-0.3149,-0.3111,-0.3128,-0.305,-0.3042,-0.3026,-0.298,-0.2946,-0.2945,-0.279,-0.2693,-0.2559,-0.2577,-0.2592,-0.2872,-0.2871,-0.287,0,-0.2628,-0.2764,-0.2852,-0.2886,-0.2986,-0.3037,-0.3068,-0.3127,-0.3131,-0.3215,-0.3209,-0.3251,-0.3198,-0.3205,-0.3092,-0.3086,-0.3069,-0.3043,-0.2878,-0.2866,-0.2715,-0.2685,-0.2755,-0.3065,-0.3065,-0.3065,-0.3065,0,-0.2669,-0.2711,-0.2833,-0.2875,-0.292,-0.3021,-0.3059,-0.3118,-0.3178,-0.3147,-0.3249,-0.3201,-0.3229,-0.3189,-0.3153,-0.3018,-0.3105,-0.2913,-0.2868,-0.2737,-0.2711,-0.27,-0.2725,-0.3065,-0.3065,-0.3065,-0.3065,0,-0.2569,-0.2695,-0.2743,-0.2875,-0.2897,-0.2903,-0.2953,-0.296,-0.308,-0.3049,-0.3062,-0.3129,-0.308,-0.3092,-0.307,-0.3017,-0.2902,-0.29,-0.2728,-0.2663,-0.2514,-0.2549,-0.2505,-0.2444,-0.2749,-0.2746,-0.2743,0,-0.2513,-0.2542,-0.2654,-0.2642,-0.268,-0.2707,-0.2703,-0.285,-0.2838,-0.2938,-0.2884,-0.2904,-0.2799,-0.2766,-0.2736,-0.2693,-0.2716,-0.2551,-0.2513,-0.2504,-0.2513,-0.2504,-0.2458,-0.2352,-0.2346,-0.2341,-0.2338,0,-0.2325,-0.2371,-0.2402,-0.241,-0.241,-0.2409,-0.2425,-0.242,-0.2564,-0.2571,-0.2533,-0.2493,-0.2457,-0.2349,-0.2358,-0.2317,-0.2478,-0.2446,-0.25,-0.2268,-0.2204,-0.2121,-0.2351,-0.2295,-0.2299,-0.2302,-0.2305,-0.2306,-0.2092,-0.2055,-0.2109,-0.2099,-0.2109,-0.2101,-0.2079,-0.2108,-0.2101,-0.2117,-0.2135,-0.2083,-0.2086,-0.2043,-0.2028,-0.2032,-0.2083,-0.2011,-0.2072,-0.2079,-0.1971,-0.2088,-0.1936,-0.1938,-0.1939,-0.1941,-0.1942,0,-0.1787,-0.1801,-0.1775,-0.1806,-0.1781,-0.1875,-0.1873,-0.1859,-0.1823,-0.1799,-0.1733,-0.1727,-0.1654,-0.1753,-0.1786,-0.1731,-0.17,-0.1732,-0.1737,-0.1722,-0.1876,-0.1809,-0.1544,-0.1544,-0.1544,-0.1544,-0.1544,-0.1544,-0.162,-0.1532,-0.1579,-0.1497,-0.1528,-0.1508,-0.1516,-0.149,-0.1477,-0.1407,-0.1426,-0.1447,-0.1602,-0.1759,-0.1742,-0.1662,-0.1666,-0.1538,-0.1641,-0.1817,-0.185,-0.1882,-0.1828,-0.1571,-0.1571,-0.1386,-0.1385,-0.1385]},{"header":{"parameterUnit":"m.s-1","parameterCategory":2,"la1":30.2991,"la2":30.254,"lo1":-89.0895,"lo2":-89.0444,"dy":0.0017,"dx":0.0017,"nx":28,"ny":28,"refTime":"2023-10-11T09:00:00:Z","depth":"0","parameterNumber":3,"parameterNumberName":"V-component_of_CURRENTS"},"data":[0,0,0,0,0,0,0,0,0,0,0,0,0,0,0,0,0,0,0,0,0,0,0,0,0,0,0,0,0,0,0,0,0,0,0,0,0,0,0,0,0,0,0,0,0,0,0,0,0,0,0,0,0,0,0,0,0,0,-0.0268,-0.0268,0,-0.0235,-0.0235,-0.0234,-0.0192,-0.0191,-0.0191,-0.019,-0.0117,-0.0115,-0.0114,0,0,0,0,0,0,0,0,0,0,0,0,0,-0.0289,-0.0288,-0.0268,-0.0268,-0.0268,-0.0236,-0.0235,-0.0234,-0.0192,-0.0191,-0.0191,-0.019,-0.0117,-0.0116,-0.0114,0,0,0,0,0,0,0,0,0,0,0,0,0,-0.0267,-0.0288,-0.0268,-0.0245,-0.0243,-0.0236,-0.0235,-0.0234,-0.0192,-0.0191,-0.0191,-0.019,-0.0118,-0.0116,-0.0113,-0.011,0,0,-0.0106,-0.0105,0,0,0,0,0,0,0,0,-0.0268,-0.0266,-0.0249,-0.0247,-0.0245,-0.022,-0.0215,-0.0192,-0.0192,-0.0208,-0.019,-0.019,-0.015,-0.0145,-0.0136,-0.0107,-0.0104,-0.0106,-0.0104,-0.0103,-0.0103,0,0,0,0,0,0,0,-0.027,-0.0267,-0.0252,-0.0249,-0.0246,-0.0235,-0.0231,-0.021,-0.0179,-0.0206,-0.0204,-0.0206,-0.0148,-0.0139,-0.0134,-0.0103,-0.0106,-0.0104,-0.0102,-0.0101,-0.0067,-0.0067,0,0,0,0,0,0,-0.0281,-0.0269,-0.0253,-0.0251,-0.0259,-0.0236,-0.0231,-0.0226,-0.018,-0.0174,-0.0206,-0.0204,-0.0143,-0.0137,-0.0131,-0.0127,-0.0103,-0.0101,-0.01,-0.0066,-0.0067,-0.0068,0,0,0,0,0,0,-0.0282,-0.028,-0.0254,-0.0262,-0.0258,-0.0236,-0.0231,-0.0225,-0.0216,-0.0181,-0.0174,-0.0202,-0.0142,-0.0135,-0.0117,-0.0124,-0.01,-0.0098,-0.0066,-0.0067,-0.0067,-0.0117,0,0,0,0,0,0,-0.0282,-0.028,-0.0275,-0.0263,-0.0259,-0.0255,-0.0231,-0.0225,-0.0219,-0.0216,-0.0176,-0.0168,-0.0141,-0.0121,-0.0115,-0.012,-0.0096,-0.0065,-0.0066,-0.0067,-0.0115,-0.012,-0.0124,0,0,0,0,0,-0.0283,-0.0281,-0.0274,-0.0273,-0.0253,-0.0256,-0.0253,-0.0233,-0.022,-0.022,-0.0194,-0.0169,-0.0123,-0.012,-0.0112,-0.0117,-0.0065,-0.0066,-0.0067,-0.0113,-0.0119,-0.0124,0,0,0,0,0,0,-0.0284,-0.0277,-0.0269,-0.0263,-0.0263,-0.025,-0.0246,-0.0238,-0.0217,-0.0209,-0.0175,-0.0166,-0.0152,-0.0131,-0.0129,-0.0111,-0.009,-0.009,-0.0128,-0.0133,-0.0137,-0.0134,-0.0094,0,0,0,0,0,-0.0285,-0.0284,-0.0277,-0.0276,-0.0273,-0.0261,-0.0257,-0.0249,-0.0234,-0.0224,-0.0195,-0.0169,-0.0152,-0.014,-0.0117,-0.0109,-0.0078,-0.0108,-0.0112,-0.0116,-0.0109,-0.0077,-0.0078,-0.0071,-0.0071,-0.0071,0,0,-0.0287,-0.0284,-0.0282,-0.0278,-0.027,-0.0268,-0.0256,-0.0256,-0.0254,-0.0219,-0.0199,-0.018,-0.0153,-0.0142,-0.0134,-0.0125,-0.0102,-0.0117,-0.0121,-0.0112,-0.0079,-0.0079,-0.008,-0.0072,-0.0072,-0.0072,0,0,-0.0304,-0.0286,-0.0294,-0.0292,-0.0291,-0.0278,-0.0281,-0.0268,-0.0259,-0.0248,-0.0223,-0.0213,-0.0178,-0.0166,-0.0155,-0.0172,-0.0125,-0.0163,-0.0183,-0.0153,-0.0153,-0.0153,-0.0117,-0.0113,-0.0167,-0.0167,-0.0167,0,-0.031,-0.0311,-0.0299,-0.0307,-0.0301,-0.0284,-0.0288,-0.0279,-0.0263,-0.0256,-0.0246,-0.02,-0.019,-0.0177,-0.0191,-0.0182,-0.0149,-0.0166,-0.0158,-0.0157,-0.0156,-0.0119,-0.0114,-0.017,-0.017,-0.0169,-0.0169,0,-0.0343,-0.0331,-0.0335,-0.0331,-0.0324,-0.0326,-0.0311,-0.0303,-0.0285,-0.0274,-0.0254,-0.0235,-0.0206,-0.0212,-0.021,-0.02,-0.0175,-0.0166,-0.0145,-0.0159,-0.012,-0.0114,-0.0174,-0.0173,-0.0172,-0.0171,0,0,-0.0399,-0.0364,-0.0367,-0.0356,-0.0334,-0.0335,-0.0324,-0.0312,-0.0303,-0.0283,-0.0262,-0.026,-0.024,-0.0228,-0.0218,-0.0208,-0.0192,-0.019,-0.0187,-0.0154,-0.0113,-0.0079,-0.0068,-0.0177,-0.0176,-0.0175,-0.009,0,-0.0431,-0.0436,-0.0409,-0.0402,-0.0395,-0.0361,-0.0349,-0.0335,-0.0313,-0.0286,-0.0267,-0.0242,-0.0248,-0.0235,-0.0225,-0.0192,-0.0177,-0.0215,-0.0103,-0.01,-0.0067,-0.0061,-0.0028,0.0052,-0.0084,-0.0083,-0.0082,0,-0.0494,-0.0474,-0.047,-0.0421,-0.0416,-0.0407,-0.0376,-0.0364,-0.0324,-0.0303,-0.0269,-0.0237,-0.0214,-0.0216,-0.0158,-0.0176,-0.0151,-0.013,-0.0126,-0.0069,-0.0054,0.0046,0.0069,0.0172,-0.0072,-0.0073,-0.0073,0,-0.0562,-0.0527,-0.0516,-0.0505,-0.0447,-0.0438,-0.0412,-0.0376,-0.0356,-0.0309,-0.0276,-0.0231,-0.0198,-0.0156,-0.0118,-0.013,-0.0043,-0.0051,0.0008,0.0011,0.0074,0.0081,0.0212,-0.001,-0.001,-0.001,-0.001,0,-0.0627,-0.0619,-0.0544,-0.0542,-0.0513,-0.0476,-0.0454,-0.042,-0.037,-0.0335,-0.0286,-0.0244,-0.0182,-0.0124,-0.0094,-0.0013,-0.0018,0.0016,0.0038,0.0056,0.0061,0.0182,0.0226,-0.0007,-0.0008,-0.0008,-0.0009,0,-0.0711,-0.0671,-0.0632,-0.056,-0.0543,-0.0523,-0.0462,-0.0444,-0.0398,-0.0345,-0.0324,-0.0241,-0.0165,-0.0098,-0.0023,0.0022,0.0157,0.011,0.013,0.0153,0.0303,0.0343,0.0499,0.0548,0.0203,0.0204,0.0205,0,-0.0752,-0.0744,-0.0644,-0.0605,-0.0569,-0.0535,-0.0508,-0.0461,-0.0435,-0.0346,-0.0317,-0.0227,-0.0169,-0.0026,0.0075,0.0172,0.0219,0.026,0.0232,0.0331,0.0392,0.0409,0.0438,0.0296,0.0298,0.03,0.0301,0,-0.0793,-0.0748,-0.0692,-0.0613,-0.057,-0.0536,-0.05,-0.049,-0.0431,-0.0393,-0.0326,-0.0274,-0.0111,0.0029,0.0174,0.0224,0.0357,0.0294,0.0397,0.0483,0.0512,0.0562,0.0222,0.0314,0.0313,0.0312,0.0311,0.0311,-0.0784,-0.0737,-0.065,-0.058,-0.0545,-0.0532,-0.0528,-0.0506,-0.0481,-0.0442,-0.0368,-0.0315,-0.0031,0.0179,0.0272,0.0508,0.0463,0.0558,0.06,0.0609,0.0655,0.0346,0.0458,0.0458,0.0457,0.0457,0.0456,0,-0.0745,-0.0691,-0.0624,-0.054,-0.053,-0.052,-0.0509,-0.0523,-0.0525,-0.0497,-0.0457,-0.0232,0.005,0.0306,0.0683,0.0811,0.0818,0.0865,0.0903,0.0918,0.0655,0.0657,0.0817,0.0817,0.0817,0.0817,0.0817,0.0817,-0.0702,-0.0624,-0.0584,-0.0535,-0.0517,-0.0527,-0.0539,-0.0561,-0.0561,-0.0531,-0.0467,-0.0422,0.0018,0.0753,0.111,0.1117,0.1208,0.1203,0.1245,0.1074,0.1048,0.1023,0.1036,0.1274,0.1274,0.1488,0.149,0.1492]}],[{"header":{"parameterUnit":"m.s-1","parameterCategory":2,"la1":30.2991,"la2":30.254,"lo1":-89.0895,"lo2":-89.0444,"dy":0.0017,"dx":0.0017,"nx":28,"ny":28,"refTime":"2023-10-11T09:00:00:Z","depth":"2","parameterNumber":2,"parameterNumberName":"U-component_of_CURRENTS"},"data":[0,0,0,0,0,0,0,0,0,0,0,0,0,0,0,0,0,0,0,0,0,0,0,0,0,0,0,0,0,0,0,0,0,0,0,0,0,0,0,0,0,0,0,0,0,0,0,0,0,0,0,0,0,0,0,0,0,0,-0.164,-0.1644,0,-0.1748,-0.1747,-0.1745,-0.1674,-0.1674,-0.1674,-0.1673,-0.1662,-0.1662,-0.1662,0,0,0,0,0,0,0,0,0,0,0,0,0,-0.1572,-0.157,-0.1639,-0.1644,-0.1648,-0.1749,-0.1747,-0.1745,-0.1674,-0.1674,-0.1673,-0.1673,-0.1662,-0.1662,-0.1662,0,0,0,0,0,0,0,0,0,0,0,0,0,-0.1601,-0.1569,-0.1639,-0.165,-0.1654,-0.1749,-0.1747,-0.1744,-0.1674,-0.1674,-0.1673,-0.1673,-0.1662,-0.1662,-0.1662,-0.1667,0,0,-0.1661,-0.1661,0,0,0,0,0,0,0,0,-0.1599,-0.1598,-0.1644,-0.165,-0.1655,-0.1727,-0.1721,-0.1724,-0.1674,-0.1631,-0.1673,-0.1673,-0.1695,-0.1692,-0.1667,-0.1666,-0.1666,-0.1661,-0.1661,-0.1661,-0.1661,0,0,0,0,0,0,0,-0.1596,-0.1595,-0.1648,-0.1649,-0.1657,-0.1722,-0.1719,-0.172,-0.1635,-0.1635,-0.1638,-0.1704,-0.1692,-0.1667,-0.1666,-0.1666,-0.1661,-0.1661,-0.1661,-0.1661,-0.1647,-0.1647,0,0,0,0,0,0,-0.164,-0.1592,-0.1646,-0.1655,-0.1664,-0.1724,-0.1721,-0.1676,-0.1638,-0.1642,-0.1704,-0.1701,-0.1667,-0.1667,-0.1666,-0.1666,-0.1661,-0.1661,-0.1661,-0.1647,-0.1647,-0.1646,0,0,0,0,0,0,-0.1636,-0.1639,-0.1642,-0.166,-0.1669,-0.1728,-0.1678,-0.168,-0.1668,-0.1698,-0.1693,-0.1698,-0.1667,-0.1666,-0.1645,-0.1666,-0.1661,-0.1661,-0.1647,-0.1647,-0.1647,-0.167,0,0,0,0,0,0,-0.1631,-0.1633,-0.1631,-0.1659,-0.1671,-0.1599,-0.1682,-0.1683,-0.1726,-0.1721,-0.1692,-0.1689,-0.1667,-0.1645,-0.1645,-0.1665,-0.1661,-0.1648,-0.1647,-0.1647,-0.1669,-0.167,-0.1671,0,0,0,0,0,-0.1626,-0.1626,-0.1626,-0.1638,-0.1654,-0.1597,-0.1598,-0.1626,-0.1727,-0.1631,-0.1681,-0.169,-0.1642,-0.1644,-0.1644,-0.1665,-0.1648,-0.1647,-0.1647,-0.1669,-0.167,-0.1671,0,0,0,0,0,0,-0.1611,-0.1623,-0.1623,-0.1627,-0.1575,-0.1595,-0.1652,-0.1643,-0.1612,-0.1692,-0.1679,-0.1673,-0.1656,-0.1658,-0.166,-0.1657,-0.1651,-0.1651,-0.1668,-0.1669,-0.167,-0.1731,-0.166,0,0,0,0,0,-0.1611,-0.1598,-0.1578,-0.1581,-0.1607,-0.1631,-0.1649,-0.1635,-0.1644,-0.1634,-0.1621,-0.1654,-0.1653,-0.1658,-0.1629,-0.1641,-0.1666,-0.1655,-0.1656,-0.1657,-0.1705,-0.1708,-0.1714,-0.1644,-0.1644,-0.1644,0,0,-0.1637,-0.164,-0.1646,-0.158,-0.1626,-0.1651,-0.1629,-0.1665,-0.1675,-0.1649,-0.1686,-0.1642,-0.1649,-0.1634,-0.1633,-0.1644,-0.1691,-0.1656,-0.1657,-0.1706,-0.1708,-0.1715,-0.1722,-0.1644,-0.1644,-0.1644,0,0,-0.1711,-0.1673,-0.1714,-0.1647,-0.1685,-0.1703,-0.1709,-0.1701,-0.168,-0.1679,-0.1684,-0.164,-0.166,-0.1621,-0.1634,-0.1631,-0.1678,-0.1641,-0.1719,-0.172,-0.1727,-0.1733,-0.1786,-0.1797,-0.1663,-0.1663,-0.1663,0,-0.1742,-0.1769,-0.1706,-0.1709,-0.1744,-0.174,-0.1788,-0.176,-0.1714,-0.1688,-0.1701,-0.1703,-0.1663,-0.1677,-0.1668,-0.1635,-0.1679,-0.1715,-0.1724,-0.173,-0.1736,-0.1789,-0.1801,-0.1664,-0.1663,-0.1663,-0.1663,0,-0.1826,-0.1843,-0.1886,-0.1901,-0.187,-0.1908,-0.1885,-0.184,-0.1892,-0.1836,-0.1806,-0.1754,-0.1752,-0.1716,-0.1713,-0.1729,-0.176,-0.1706,-0.1728,-0.1746,-0.1799,-0.1811,-0.1665,-0.1665,-0.1664,-0.1664,0,0,-0.1905,-0.1947,-0.1954,-0.198,-0.1978,-0.1954,-0.2,-0.1968,-0.2018,-0.1925,-0.1955,-0.1894,-0.1849,-0.1861,-0.1817,-0.1815,-0.1861,-0.1812,-0.1811,-0.1881,-0.1937,-0.1829,-0.1832,-0.1827,-0.1829,-0.183,-0.1963,0,-0.2018,-0.2074,-0.2069,-0.2149,-0.2202,-0.2146,-0.217,-0.2097,-0.2094,-0.2076,-0.199,-0.199,-0.1921,-0.194,-0.1928,-0.1871,-0.1895,-0.1835,-0.19,-0.1903,-0.1815,-0.1841,-0.1667,-0.176,-0.1975,-0.1976,-0.1978,0,-0.2118,-0.2133,-0.2234,-0.2262,-0.2291,-0.2319,-0.2349,-0.234,-0.2269,-0.2257,-0.2227,-0.2168,-0.2139,-0.209,-0.2074,-0.2059,-0.2031,-0.1986,-0.1988,-0.1898,-0.1816,-0.1773,-0.1773,-0.1998,-0.1996,-0.1995,-0.1994,0,-0.2185,-0.2256,-0.2358,-0.234,-0.2367,-0.2391,-0.2417,-0.2369,-0.2337,-0.2357,-0.2331,-0.2341,-0.2308,-0.2305,-0.2187,-0.2169,-0.2178,-0.212,-0.2007,-0.2001,-0.1872,-0.185,-0.2134,-0.2134,-0.2134,-0.2133,-0.2133,0,-0.2281,-0.2323,-0.2391,-0.2393,-0.2455,-0.2453,-0.2515,-0.2503,-0.2503,-0.2446,-0.2423,-0.2387,-0.2356,-0.2309,-0.2275,-0.2184,-0.2248,-0.2056,-0.2025,-0.1873,-0.185,-0.2062,-0.2052,-0.2138,-0.2137,-0.2136,-0.2135,0,-0.2269,-0.236,-0.2408,-0.2467,-0.2479,-0.2482,-0.249,-0.2468,-0.2526,-0.2473,-0.2461,-0.2407,-0.2364,-0.2324,-0.23,-0.2232,-0.2191,-0.2136,-0.1985,-0.1931,-0.202,-0.201,-0.2086,-0.2083,-0.2081,-0.2079,-0.2077,0,-0.2253,-0.2292,-0.2371,-0.2342,-0.2361,-0.238,-0.234,-0.2437,-0.2395,-0.2433,-0.2349,-0.2334,-0.2212,-0.2171,-0.2118,-0.2099,-0.2123,-0.1911,-0.1801,-0.2053,-0.2015,-0.2008,-0.2001,-0.1665,-0.166,-0.1656,-0.1653,0,-0.2117,-0.2179,-0.2174,-0.2123,-0.2114,-0.209,-0.2069,-0.2075,-0.2162,-0.2139,-0.2052,-0.1995,-0.1994,-0.1859,-0.1868,-0.1818,-0.1915,-0.1825,-0.2131,-0.1674,-0.1657,-0.1619,-0.1626,-0.1617,-0.1621,-0.1624,-0.1625,-0.1627,-0.1933,-0.1889,-0.1875,-0.1795,-0.1776,-0.1693,-0.1678,-0.1659,-0.1609,-0.1603,-0.1709,-0.1646,-0.1706,-0.159,-0.1541,-0.1548,-0.166,-0.1585,-0.1597,-0.1614,-0.1511,-0.1486,-0.1402,-0.1404,-0.1406,-0.1408,-0.1409,0,-0.1632,-0.1587,-0.1491,-0.1439,-0.1338,-0.1412,-0.1379,-0.134,-0.1251,-0.1332,-0.131,-0.121,-0.1159,-0.1274,-0.122,-0.1205,-0.1198,-0.1159,-0.1149,-0.1184,-0.1215,-0.1092,-0.0872,-0.0871,-0.0869,-0.0868,0,0,-0.1453,-0.1266,-0.1216,-0.0972,-0.0967,-0.0867,-0.0856,-0.0805,-0.0847,-0.0789,-0.0869,-0.1051,-0.1178,-0.1003,-0.0976,-0.0921,-0.1036,-0.0872,-0.1297,-0.1315,-0.1344,-0.1449,-0.1296,0,0,0,0,0]},{"header":{"parameterUnit":"m.s-1","parameterCategory":2,"la1":30.2991,"la2":30.254,"lo1":-89.0895,"lo2":-89.0444,"dy":0.0017,"dx":0.0017,"nx":28,"ny":28,"refTime":"2023-10-11T09:00:00:Z","depth":"2","parameterNumber":3,"parameterNumberName":"V-component_of_CURRENTS"},"data":[0,0,0,0,0,0,0,0,0,0,0,0,0,0,0,0,0,0,0,0,0,0,0,0,0,0,0,0,0,0,0,0,0,0,0,0,0,0,0,0,0,0,0,0,0,0,0,0,0,0,0,0,0,0,0,0,0,0,-0.0051,-0.0051,0,-0.0021,-0.002,-0.0019,0.0021,0.0021,0.0021,0.0021,0.008,0.0082,0.0084,0,0,0,0,0,0,0,0,0,0,0,0,0,-0.009,-0.0089,-0.0051,-0.0051,-0.0051,-0.0021,-0.002,-0.0019,0.0021,0.0021,0.0021,0.0021,0.008,0.0082,0.0084,0,0,0,0,0,0,0,0,0,0,0,0,0,-0.0061,-0.0089,-0.005,-0.0033,-0.0032,-0.0021,-0.002,-0.0018,0.0021,0.0021,0.0021,0.0021,0.0079,0.0082,0.0084,0.01,0,0,0.0091,0.0092,0,0,0,0,0,0,0,0,-0.0063,-0.0058,-0.0035,-0.0034,-0.0033,-0.001,-0.0013,0.002,0.0021,0.0009,0.0021,0.0021,0.0048,0.0053,0.0069,0.0102,0.0105,0.0092,0.0093,0.0094,0.0095,0,0,0,0,0,0,0,-0.0065,-0.006,-0.0031,-0.0036,-0.0035,-0.0034,-0.0028,-0.0006,0.0035,0.001,0.0011,0.0003,0.005,0.0067,0.0071,0.0106,0.0092,0.0094,0.0095,0.0096,0.0175,0.0175,0,0,0,0,0,0,-0.0082,-0.0061,-0.0032,-0.0031,-0.0057,-0.0033,-0.0027,-0.0011,0.0034,0.0038,0.0002,0.0004,0.0063,0.0068,0.0073,0.0115,0.0094,0.0096,0.0098,0.0174,0.0175,0.0176,0,0,0,0,0,0,-0.0083,-0.0079,-0.0033,-0.0053,-0.0048,-0.0033,-0.0015,-0.0011,0.0006,0.0026,0.0033,0.0013,0.0063,0.0069,0.0091,0.0116,0.0097,0.01,0.0173,0.0174,0.0175,0.0185,0,0,0,0,0,0,-0.0084,-0.0078,-0.0068,-0.0054,-0.0048,-0.0003,-0.0016,-0.001,-0.0004,-0.0001,0.0038,0.0043,0.0063,0.0088,0.0094,0.0119,0.0101,0.0172,0.0174,0.0175,0.0184,0.0186,0.0188,0,0,0,0,0,-0.0085,-0.0068,-0.0067,-0.0064,-0.0035,-0.0002,0.0003,0.0017,-0.0003,0.0027,0.0028,0.0042,0.01,0.009,0.0097,0.0124,0.0172,0.0173,0.0175,0.0183,0.0186,0.0188,0,0,0,0,0,0,-0.0078,-0.0063,-0.0061,-0.004,-0.0016,0.0002,0.0002,0.0014,0.0039,0.0018,0.0045,0.0052,0.0084,0.0097,0.0085,0.015,0.0141,0.0144,0.0145,0.0148,0.015,0.0154,0.0103,0,0,0,0,0,-0.0076,-0.0059,-0.004,-0.0024,-0.0027,-0.0015,-0.0006,0.0005,0.0019,0.0029,0.0057,0.0073,0.0097,0.0114,0.014,0.017,0.0191,0.0194,0.0196,0.0197,0.0205,0.0261,0.0269,0.018,0.018,0.018,0,0,-0.0075,-0.0065,-0.0057,-0.0023,-0.0025,-0.0013,-0.0007,-0.0003,0.0015,0.0029,0.0056,0.0081,0.0105,0.0143,0.0159,0.0157,0.023,0.0199,0.0201,0.0208,0.0264,0.0272,0.028,0.0181,0.0181,0.0181,0,0,-0.0084,-0.006,-0.0064,-0.0028,-0.0026,-0.0021,-0.002,0.0003,0.002,0.0042,0.0059,0.0106,0.0127,0.018,0.0196,0.0227,0.0237,0.0223,0.0243,0.0297,0.0305,0.0312,0.0332,0.0342,0.0227,0.0227,0.0227,0,-0.0091,-0.008,-0.0056,-0.0038,-0.0025,-0.0028,-0.0022,-0.0001,0.0038,0.0078,0.0045,0.0124,0.0152,0.0222,0.023,0.0237,0.0243,0.023,0.03,0.0308,0.0316,0.0335,0.0345,0.0228,0.0228,0.0228,0.0227,0,-0.0096,-0.0077,-0.008,-0.0064,-0.0032,-0.0029,-0.0003,0.0032,0.0024,0.0071,0.0133,0.0157,0.0216,0.0232,0.0231,0.031,0.0288,0.0294,0.0294,0.0325,0.0343,0.0353,0.0229,0.0228,0.0228,0.0228,0,0,-0.0163,-0.0101,-0.0104,-0.0091,-0.0045,-0.0031,0.0007,0.0063,0.009,0.0135,0.0193,0.0245,0.0272,0.0291,0.031,0.0355,0.0411,0.0335,0.0338,0.0355,0.0494,0.0433,0.0438,0.0416,0.0419,0.0421,0.048,0,-0.0197,-0.0172,-0.0123,-0.0107,-0.0104,-0.0038,0.0002,0.0076,0.011,0.0179,0.0243,0.0283,0.0285,0.0289,0.0345,0.0391,0.044,0.0392,0.0462,0.0464,0.0406,0.0449,0.0431,0.0478,0.049,0.0492,0.0493,0,-0.0256,-0.0216,-0.0202,-0.0127,-0.0122,-0.0101,-0.003,0.0014,0.0143,0.0179,0.0262,0.0303,0.039,0.0358,0.0468,0.0425,0.0463,0.0494,0.0498,0.0447,0.0423,0.0453,0.0496,0.051,0.0509,0.0507,0.0506,0,-0.036,-0.0295,-0.0291,-0.0254,-0.0159,-0.0132,-0.0096,0.0022,0.0065,0.0177,0.0213,0.0326,0.034,0.0425,0.0471,0.0474,0.0564,0.0589,0.0579,0.0574,0.0578,0.0569,0.0683,0.0683,0.0683,0.0682,0.0682,0,-0.0443,-0.0434,-0.034,-0.0321,-0.0294,-0.0207,-0.0179,-0.0099,-0.0002,0.006,0.0186,0.0213,0.035,0.0416,0.0482,0.0535,0.0577,0.0592,0.0596,0.0576,0.0567,0.0612,0.0603,0.0685,0.0684,0.0684,0.0683,0,-0.0568,-0.0514,-0.0476,-0.037,-0.0347,-0.0325,-0.0243,-0.0202,-0.0117,-0.0043,-0.0014,0.0132,0.0209,0.0328,0.0451,0.0519,0.0598,0.0607,0.0549,0.0545,0.0579,0.0569,0.0648,0.0647,0.0646,0.0645,0.0644,0,-0.063,-0.0628,-0.0517,-0.0481,-0.044,-0.04,-0.036,-0.0273,-0.0226,-0.011,-0.0073,0.0021,0.0094,0.0245,0.0378,0.0503,0.0527,0.056,0.059,0.0585,0.0581,0.0574,0.0566,0.06,0.0599,0.0598,0.0597,0,-0.0701,-0.0664,-0.0599,-0.0538,-0.0501,-0.0464,-0.0412,-0.0402,-0.0298,-0.0256,-0.0194,-0.0136,0.0032,0.0171,0.0329,0.0404,0.0546,0.0543,0.0584,0.0589,0.0539,0.0534,0.0529,0.0589,0.059,0.059,0.0591,0.0591,-0.0721,-0.0685,-0.0607,-0.0566,-0.0525,-0.0519,-0.0507,-0.0471,-0.0451,-0.0377,-0.0315,-0.0236,-0.0034,0.0163,0.0302,0.0442,0.0466,0.0539,0.0544,0.0549,0.0511,0.0459,0.0486,0.0486,0.0486,0.0486,0.0486,0,-0.0718,-0.0677,-0.0635,-0.0582,-0.0587,-0.0556,-0.0516,-0.0515,-0.0523,-0.0468,-0.0427,-0.0273,-0.0093,0.0096,0.032,0.0468,0.0492,0.0483,0.0517,0.0524,0.053,0.0493,0.0462,0.0463,0.0463,0.0463,0,0,-0.0691,-0.0658,-0.065,-0.0664,-0.064,-0.0628,-0.061,-0.0614,-0.057,-0.0559,-0.0506,-0.0388,-0.0122,0.003,0.0233,0.0358,0.0396,0.0355,0.0361,0.0385,0.0389,0.055,0.0497,0,0,0,0,0]}],[{"header":{"parameterUnit":"m.s-1","parameterCategory":2,"la1":30.2991,"la2":30.254,"lo1":-89.0895,"lo2":-89.0444,"dy":0.0017,"dx":0.0017,"nx":28,"ny":28,"refTime":"2023-10-11T09:00:00:Z","depth":"4","parameterNumber":2,"parameterNumberName":"U-component_of_CURRENTS"},"data":[0,0,0,0,0,0,0,0,0,0,0,0,0,0,0,0,0,0,0,0,0,0,0,0,0,0,0,0,0,0,0,0,0,0,0,0,0,0,0,0,0,0,0,0,0,0,0,0,0,0,0,0,0,0,0,0,0,0,-0.0513,-0.0513,0,-0.0537,-0.0537,-0.0537,-0.0559,-0.0559,-0.0559,-0.056,-0.0627,-0.0629,-0.063,0,0,0,0,0,0,0,0,0,0,0,0,0,-0.0489,-0.0489,-0.0513,-0.0513,-0.0513,-0.0536,-0.0537,-0.0537,-0.0559,-0.0559,-0.0559,-0.056,-0.0627,-0.0629,-0.0631,0,0,0,0,0,0,0,0,0,0,0,0,0,-0.0505,-0.0489,-0.0513,-0.0526,-0.0528,-0.0536,-0.0537,-0.0537,-0.0559,-0.0559,-0.0559,-0.056,-0.0626,-0.0628,-0.0631,-0.0639,0,0,-0.0638,-0.0639,0,0,0,0,0,0,0,0,-0.0504,-0.0506,-0.0524,-0.0526,-0.0527,-0.0545,-0.0553,-0.0573,-0.0559,-0.0548,-0.056,-0.056,-0.0603,-0.0607,-0.0611,-0.0643,-0.0646,-0.0638,-0.064,-0.0641,-0.0642,0,0,0,0,0,0,0,-0.0503,-0.0505,-0.0523,-0.0524,-0.0526,-0.0532,-0.0535,-0.0557,-0.0575,-0.0549,-0.055,-0.0552,-0.0604,-0.0609,-0.0613,-0.0647,-0.0638,-0.0641,-0.0642,-0.0643,-0.0743,-0.0744,0,0,0,0,0,0,-0.0498,-0.0504,-0.0522,-0.0523,-0.0515,-0.0532,-0.0535,-0.0539,-0.0573,-0.0578,-0.0551,-0.0553,-0.0605,-0.061,-0.0616,-0.0699,-0.0641,-0.0643,-0.0645,-0.0741,-0.0743,-0.0744,0,0,0,0,0,0,-0.0498,-0.05,-0.0521,-0.0514,-0.0517,-0.0532,-0.0536,-0.0539,-0.0556,-0.0575,-0.0581,-0.0567,-0.0605,-0.0612,-0.0649,-0.0699,-0.0644,-0.0646,-0.074,-0.0742,-0.0744,-0.0819,0,0,0,0,0,0,-0.0497,-0.05,-0.0504,-0.0513,-0.0517,-0.0536,-0.0536,-0.054,-0.0556,-0.0558,-0.059,-0.0596,-0.0606,-0.0645,-0.0651,-0.0701,-0.0648,-0.0739,-0.0741,-0.0743,-0.0815,-0.0824,-0.0831,0,0,0,0,0,-0.0496,-0.0499,-0.0504,-0.0506,-0.0521,-0.0537,-0.054,-0.0552,-0.0556,-0.0568,-0.059,-0.0595,-0.0664,-0.0648,-0.0655,-0.0707,-0.0737,-0.074,-0.0743,-0.0812,-0.0822,-0.083,0,0,0,0,0,0,-0.0493,-0.0502,-0.0507,-0.0514,-0.0529,-0.0541,-0.0549,-0.0558,-0.0584,-0.0588,-0.0607,-0.0615,-0.0663,-0.0668,-0.065,-0.0739,-0.0703,-0.0708,-0.0754,-0.0763,-0.0771,-0.0779,-0.065,0,0,0,0,0,-0.0493,-0.0499,-0.0511,-0.0519,-0.0525,-0.0539,-0.0548,-0.0558,-0.0578,-0.0589,-0.0613,-0.0641,-0.0677,-0.0705,-0.0723,-0.0776,-0.075,-0.0812,-0.082,-0.0827,-0.0837,-0.0836,-0.0845,-0.0753,-0.0753,-0.0753,0,0,-0.0494,-0.0501,-0.0504,-0.0519,-0.053,-0.0547,-0.0546,-0.0563,-0.0583,-0.0594,-0.0632,-0.066,-0.0691,-0.0747,-0.0771,-0.0764,-0.0835,-0.083,-0.0836,-0.0842,-0.084,-0.0849,-0.0857,-0.0755,-0.0755,-0.0754,0,0,-0.0497,-0.0506,-0.051,-0.0525,-0.0543,-0.0556,-0.0564,-0.0584,-0.0599,-0.0636,-0.0656,-0.0712,-0.0755,-0.0801,-0.0827,-0.0885,-0.0863,-0.0899,-0.0966,-0.0966,-0.0974,-0.098,-0.0937,-0.0939,-0.0919,-0.0919,-0.0919,0,-0.05,-0.0508,-0.0516,-0.0529,-0.0544,-0.0563,-0.058,-0.0598,-0.0632,-0.0645,-0.0654,-0.0737,-0.0782,-0.0858,-0.091,-0.0906,-0.0886,-0.0933,-0.0976,-0.0982,-0.0988,-0.0942,-0.0944,-0.0923,-0.0923,-0.0922,-0.0922,0,-0.0503,-0.0518,-0.0524,-0.0548,-0.0569,-0.0586,-0.0613,-0.0635,-0.0659,-0.0678,-0.0738,-0.0797,-0.0854,-0.0894,-0.0941,-0.1019,-0.0983,-0.0973,-0.0954,-0.1001,-0.095,-0.095,-0.0929,-0.0928,-0.0926,-0.0925,0,0,-0.0485,-0.0519,-0.0522,-0.054,-0.0581,-0.0596,-0.0633,-0.0665,-0.0685,-0.0732,-0.077,-0.0882,-0.0918,-0.0952,-0.1012,-0.1058,-0.1106,-0.1065,-0.1063,-0.1023,-0.108,-0.1084,-0.1083,-0.111,-0.1111,-0.1112,-0.102,0,-0.0486,-0.0509,-0.0531,-0.0568,-0.0585,-0.062,-0.065,-0.0684,-0.0718,-0.0758,-0.0821,-0.0882,-0.0936,-0.0997,-0.105,-0.1093,-0.1114,-0.113,-0.1039,-0.1036,-0.1035,-0.1087,-0.1115,-0.102,-0.102,-0.102,-0.102,0,-0.0475,-0.0498,-0.0527,-0.0576,-0.0585,-0.0614,-0.0663,-0.0691,-0.0745,-0.0773,-0.0839,-0.0887,-0.0994,-0.1023,-0.1081,-0.1091,-0.1105,-0.1119,-0.1114,-0.1096,-0.1042,-0.0967,-0.1019,-0.1019,-0.1019,-0.1019,-0.1019,0,-0.0444,-0.0492,-0.0516,-0.0535,-0.0592,-0.0613,-0.0643,-0.0693,-0.0717,-0.0792,-0.0826,-0.0906,-0.0977,-0.0998,-0.1081,-0.1081,-0.1112,-0.1085,-0.1072,-0.1068,-0.1054,-0.1048,-0.1101,-0.1101,-0.1102,-0.1102,-0.1102,0,-0.0425,-0.0446,-0.0504,-0.0516,-0.0551,-0.0595,-0.0629,-0.0666,-0.0723,-0.0759,-0.0841,-0.09,-0.099,-0.1035,-0.1059,-0.1078,-0.1076,-0.1092,-0.1064,-0.1083,-0.1082,-0.1051,-0.1047,-0.1098,-0.1099,-0.11,-0.11,0,-0.0381,-0.0417,-0.0453,-0.0515,-0.0535,-0.0558,-0.0617,-0.0638,-0.0695,-0.075,-0.0785,-0.0904,-0.0977,-0.1025,-0.1076,-0.106,-0.1063,-0.1063,-0.1068,-0.1038,-0.1004,-0.1004,-0.0998,-0.0998,-0.0997,-0.0997,-0.0997,0,-0.036,-0.0371,-0.044,-0.0466,-0.0496,-0.0536,-0.056,-0.0619,-0.0645,-0.0749,-0.0774,-0.0893,-0.0968,-0.0997,-0.1067,-0.1057,-0.1073,-0.1023,-0.1047,-0.103,-0.1002,-0.1003,-0.1003,-0.0997,-0.0997,-0.0997,-0.0997,0,-0.0324,-0.035,-0.0379,-0.0432,-0.0468,-0.05,-0.0539,-0.0551,-0.0622,-0.0684,-0.0766,-0.0838,-0.0927,-0.0996,-0.1025,-0.1018,-0.1028,-0.1021,-0.1021,-0.1042,-0.1029,-0.1001,-0.1002,-0.0996,-0.0996,-0.0996,-0.0996,0,-0.0304,-0.0316,-0.0356,-0.04,-0.0439,-0.0459,-0.0482,-0.0527,-0.0562,-0.0669,-0.0703,-0.0822,-0.0922,-0.0977,-0.0991,-0.1011,-0.0996,-0.0942,-0.0946,-0.0947,-0.099,-0.0969,-0.0905,0,0,0,0,0,-0.0284,-0.0293,-0.0326,-0.037,-0.0401,-0.0422,-0.0471,-0.0495,-0.0559,-0.06,-0.0648,-0.0732,-0.0825,-0.0894,-0.0907,-0.0974,-0.099,-0.0985,-0.0926,-0.0993,-0.0994,-0.1058,0,0,0,0,0,0,-0.0279,-0.0296,-0.0312,-0.0327,-0.0345,-0.0373,-0.0398,-0.0444,-0.0469,-0.055,-0.0611,-0.0682,-0.0788,-0.0811,-0.0892,-0.0909,-0.0857,-0.1055,-0.1054,-0.0993,-0.0993,-0.0994,-0.106,0,0,0,0,0]},{"header":{"parameterUnit":"m.s-1","parameterCategory":2,"la1":30.2991,"la2":30.254,"lo1":-89.0895,"lo2":-89.0444,"dy":0.0017,"dx":0.0017,"nx":28,"ny":28,"refTime":"2023-10-11T09:00:00:Z","depth":"4","parameterNumber":3,"parameterNumberName":"V-component_of_CURRENTS"},"data":[0,0,0,0,0,0,0,0,0,0,0,0,0,0,0,0,0,0,0,0,0,0,0,0,0,0,0,0,0,0,0,0,0,0,0,0,0,0,0,0,0,0,0,0,0,0,0,0,0,0,0,0,0,0,0,0,0,0,-0.0175,-0.0175,0,-0.0153,-0.0152,-0.0152,-0.0117,-0.0116,-0.0116,-0.0115,-0.009,-0.0089,-0.0089,0,0,0,0,0,0,0,0,0,0,0,0,0,-0.0168,-0.0168,-0.0175,-0.0175,-0.0175,-0.0153,-0.0152,-0.0152,-0.0117,-0.0116,-0.0116,-0.0115,-0.009,-0.0089,-0.0089,0,0,0,0,0,0,0,0,0,0,0,0,0,-0.0159,-0.0168,-0.0175,-0.0156,-0.0154,-0.0153,-0.0152,-0.0152,-0.0117,-0.0116,-0.0116,-0.0115,-0.009,-0.0089,-0.0089,-0.0101,0,0,-0.0088,-0.0088,0,0,0,0,0,0,0,0,-0.016,-0.0159,-0.0159,-0.0157,-0.0155,-0.0138,-0.014,-0.0135,-0.0117,-0.0129,-0.0115,-0.0115,-0.0107,-0.0105,-0.01,-0.01,-0.0099,-0.0088,-0.0088,-0.0088,-0.0088,0,0,0,0,0,0,0,-0.016,-0.016,-0.0164,-0.0159,-0.0157,-0.0142,-0.014,-0.0139,-0.0121,-0.0128,-0.0126,-0.0126,-0.0106,-0.0101,-0.01,-0.0099,-0.0088,-0.0088,-0.0087,-0.0087,-0.0095,-0.0095,0,0,0,0,0,0,-0.0169,-0.0161,-0.0165,-0.0164,-0.0158,-0.0143,-0.014,-0.0143,-0.0121,-0.0118,-0.0127,-0.0125,-0.0102,-0.01,-0.0099,-0.0106,-0.0088,-0.0087,-0.0087,-0.0094,-0.0095,-0.0095,0,0,0,0,0,0,-0.0168,-0.0169,-0.0166,-0.0163,-0.0162,-0.0144,-0.0147,-0.0143,-0.0135,-0.0121,-0.0117,-0.0123,-0.0101,-0.0099,-0.0097,-0.0105,-0.0087,-0.0087,-0.0094,-0.0095,-0.0095,-0.0125,0,0,0,0,0,0,-0.0168,-0.0169,-0.0173,-0.0164,-0.0162,-0.0171,-0.0148,-0.0143,-0.0137,-0.0134,-0.0116,-0.0113,-0.0101,-0.0097,-0.0096,-0.0104,-0.0087,-0.0093,-0.0094,-0.0095,-0.0124,-0.0127,-0.013,0,0,0,0,0,-0.0168,-0.0178,-0.0173,-0.0174,-0.0168,-0.0171,-0.0169,-0.0153,-0.0138,-0.0141,-0.0125,-0.0113,-0.0101,-0.0098,-0.0096,-0.0104,-0.0093,-0.0094,-0.0095,-0.0123,-0.0126,-0.013,0,0,0,0,0,0,-0.0176,-0.0175,-0.017,-0.0178,-0.0178,-0.0166,-0.0168,-0.0156,-0.0145,-0.014,-0.012,-0.0117,-0.0119,-0.0108,-0.0105,-0.0109,-0.0095,-0.0096,-0.0117,-0.012,-0.0123,-0.012,-0.0086,0,0,0,0,0,-0.0181,-0.0189,-0.0185,-0.0194,-0.0194,-0.0181,-0.0179,-0.0169,-0.016,-0.0154,-0.0143,-0.013,-0.0123,-0.0118,-0.0115,-0.0118,-0.0092,-0.0121,-0.0124,-0.0127,-0.0123,-0.0102,-0.0102,-0.0098,-0.0098,-0.0098,0,0,-0.0189,-0.0189,-0.0194,-0.0196,-0.0193,-0.0202,-0.0178,-0.018,-0.0186,-0.0154,-0.016,-0.0144,-0.0127,-0.013,-0.013,-0.012,-0.0112,-0.0128,-0.013,-0.0125,-0.0102,-0.0103,-0.0103,-0.0099,-0.0099,-0.0099,0,0,-0.0211,-0.0207,-0.0222,-0.0224,-0.0224,-0.0217,-0.022,-0.0212,-0.0207,-0.0211,-0.0187,-0.0178,-0.0171,-0.0159,-0.0151,-0.0169,-0.0132,-0.0164,-0.0172,-0.0151,-0.0151,-0.0151,-0.0107,-0.0103,-0.0161,-0.0161,-0.0161,0,-0.0218,-0.0237,-0.0227,-0.0242,-0.0247,-0.0227,-0.0244,-0.0239,-0.0233,-0.0235,-0.022,-0.0205,-0.0188,-0.0186,-0.0178,-0.0177,-0.0143,-0.0161,-0.0154,-0.0154,-0.0153,-0.0108,-0.0103,-0.0163,-0.0163,-0.0163,-0.0163,0,-0.0252,-0.0266,-0.0275,-0.0288,-0.0292,-0.0303,-0.0298,-0.0301,-0.029,-0.0286,-0.0285,-0.0258,-0.0248,-0.0237,-0.0205,-0.0191,-0.0161,-0.0164,-0.0145,-0.0155,-0.0107,-0.0101,-0.0165,-0.0165,-0.0164,-0.0164,0,0,-0.0266,-0.0294,-0.0297,-0.0311,-0.0316,-0.0323,-0.0339,-0.0348,-0.0358,-0.0346,-0.0354,-0.0325,-0.0303,-0.029,-0.0255,-0.0219,-0.0172,-0.0175,-0.0173,-0.013,-0.0096,-0.0064,-0.0053,-0.0164,-0.0163,-0.0163,-0.0061,0,-0.0294,-0.0333,-0.0338,-0.0372,-0.0388,-0.0382,-0.0399,-0.0403,-0.04,-0.0404,-0.0374,-0.0369,-0.0327,-0.0311,-0.0272,-0.0198,-0.0158,-0.0197,-0.0094,-0.0091,-0.006,-0.0047,-0.0161,-0.0056,-0.0055,-0.0053,-0.0053,0,-0.0321,-0.0344,-0.0385,-0.0414,-0.042,-0.0438,-0.0457,-0.0468,-0.047,-0.0465,-0.0454,-0.0429,-0.0378,-0.0342,-0.023,-0.025,-0.0171,-0.0111,-0.0106,-0.0062,-0.0048,-0.0047,-0.0041,-0.0042,-0.0043,-0.0044,-0.0044,0,-0.0335,-0.0373,-0.0409,-0.0419,-0.0449,-0.0467,-0.0478,-0.049,-0.05,-0.05,-0.0498,-0.0458,-0.041,-0.0335,-0.0193,-0.0212,-0.0048,-0.0077,0.0022,0.0026,-0.002,-0.0022,-0.0001,-0.0001,-0.0002,-0.0002,-0.0002,0,-0.036,-0.0389,-0.0419,-0.0441,-0.0476,-0.0486,-0.0519,-0.0529,-0.0537,-0.0545,-0.0524,-0.05,-0.0397,-0.0294,-0.0198,-0.0046,-0.0058,0.0032,0.0053,-0.0034,-0.0038,-0.0015,-0.0018,0.0002,0.0001,0.0,-0.0,0,-0.0376,-0.0399,-0.044,-0.0478,-0.0488,-0.0511,-0.0539,-0.0558,-0.0563,-0.0569,-0.0567,-0.0502,-0.037,-0.025,-0.009,-0.0033,0.0087,0.0147,0.0082,0.0096,0.0142,0.0136,0.0223,0.0225,0.0226,0.0228,0.0229,0,-0.0393,-0.0416,-0.0461,-0.0482,-0.0503,-0.0532,-0.0553,-0.057,-0.0582,-0.0564,-0.0558,-0.0443,-0.0383,-0.0134,-0.0014,0.0163,0.0187,0.0236,0.0151,0.0153,0.0164,0.0156,0.0148,0.0231,0.0232,0.0232,0.0233,0,-0.0418,-0.0432,-0.0463,-0.05,-0.0529,-0.0558,-0.0583,-0.059,-0.06,-0.0605,-0.0541,-0.0444,-0.0276,-0.0118,0.0057,0.017,0.0179,0.0252,0.0247,0.0168,0.0164,0.0172,0.0162,0.0238,0.0238,0.0237,0.0237,0,-0.0428,-0.0446,-0.0477,-0.0508,-0.0546,-0.057,-0.0585,-0.0581,-0.0587,-0.0571,-0.0534,-0.0397,-0.0308,-0.0108,0.0039,0.017,0.0162,0.0151,0.0151,0.0147,0.0089,0.0071,0.0144,0,0,0,0,0,-0.0433,-0.0447,-0.0478,-0.0514,-0.0553,-0.0572,-0.0598,-0.0606,-0.0609,-0.0569,-0.0557,-0.0414,-0.0213,-0.0119,0.0017,0.0058,0.0189,0.0217,0.0178,0.027,0.0264,0.0211,0,0,0,0,0,0,-0.0434,-0.0462,-0.0472,-0.0509,-0.0534,-0.0573,-0.0591,-0.0595,-0.0565,-0.0555,-0.0431,-0.0406,-0.0184,-0.0281,0.0015,0.0054,0.0037,0.0312,0.0314,0.0274,0.0268,0.0263,0.0206,0,0,0,0,0]}]]